GOKTURK 1A

Last updated on Mon Feb 16 2026 00:02:31 GMT+0000 (Coordinated Universal Time)

1 41875U 16073A 26046.62349639 .00000298 00000+0 67506-4 0 9998 2 41875 98.1397 303.1101 0001307 80.6864 279.4486 14.62801605491058
UTC large
Height (km)
Speed (km/s)
/
Latitude / Longitude
Inclination (degrees)
Orbital Period (minutes)
Azimuth
Elevation
Range (km)
Doppler Factor

Next 0 passes for location: London (51.5072 / 0.1276)

Sorry there are no passes over London.